Regional Weather Roundup
Issued by NWS Memphis, TN

Home | Current Version | Previous Version | Text Only | Print | Product List | Glossary On
Versions: 1 2 3 4 5 6 7 8 9 10 11 12 13 14 15 16 17 18 19 20 21 22 23 24 25 26 27 28 29 30 31 32 33 34 35 36 37 38 39 40 41 42 43 44 45 46 47 48 49 50
745
ASUS44 KMEG 301910
RWRMEG
MEMPHIS CWA HOURLY WEATHER ROUNDUP
NATIONAL WEATHER SERVICE MEMPHIS TN
200 PM CDT MON MAY 30 2016

...WEST TENNESSEE...

CITY           SKY/WX    TMP DP  RH WIND       PRES   REMARKS
MEMPHIS INTL   MOSUNNY   89  63  41 CALM      30.02F HX  90
NWS MEMPHIS      N/A     87 N/A N/A MISG        N/A
JACKSON        SUNNY     88  58  36 NE5       30.03F
LEXINGTON      MOSUNNY   86  57  37 N6        30.03F
DYERSBURG      SUNNY     86  59  39 E9        30.02F
UNION CITY     MOSUNNY   86  61  42 VRB3      30.03F
PARIS          MOSUNNY   82  57  42 NW3       30.05F


...EASTERN ARKANSAS...

CITY           SKY/WX    TMP DP  RH WIND       PRES   REMARKS
JONESBORO      SUNNY     86  62  44 E5        30.03S
WEST MEMPHIS   SUNNY     87  60  40 MISG      30.01S
BATESVILLE     CLOUDY    79  64  61 E12G18    30.06R THUNDER
NEWPORT        PTSUNNY   86  64  47 SE5       30.04F
WALNUT RIDGE   MOSUNNY   84  63  48 CALM      30.03S
BLYTHEVILLE    MOSUNNY   86  60  41 S6        30.03F
SEARCY         PTSUNNY   84  66  54 SW8       30.04F
STUTTGART      CLOUDY    84  66  54 SE3       30.03F
PINE BLUFF     MOSUNNY   84  68  58 S6        30.02F
MONTICELLO     CLOUDY    88  68  51 VRB5      30.02F HX  91


...NORTH MISSISSIPPI...

CITY           SKY/WX    TMP DP  RH WIND       PRES   REMARKS
TUPELO         PTSUNNY   89  61  38 E6        30.00F
OXFORD         MOSUNNY   86  59  39 N3        30.03F
BATESVILLE     SUNNY     88  61  39 CALM      30.02F
OLIVE BRANCH   PTSUNNY   88  64  45 E7        30.03S
TUNICA         SUNNY     86  63  45 CALM      30.02F
CLARKSDALE     MOSUNNY   88  70  55 CALM      30.02F HX  92
CORINTH        MOSUNNY   88  57  35 CALM      30.01F
GREENWOOD      MOSUNNY   90  62  39 W3        30.00F HX  90
COLUMBUS       MOSUNNY   91  62  37 VRB6      29.99F HX  91
STARKVILLE     SUNNY     90  61  37 N3        29.99F
GOLDEN TRIANGL PTSUNNY   93  63  36 NE7       30.00F HX  94


...SOUTHEAST MISSOURI...

CITY           SKY/WX    TMP DP  RH WIND       PRES   REMARKS
KENNETT        SUNNY     88  61  40 S5        30.02F
WEST PLAINS    PTSUNNY   81  62  52 SE7       30.08F
POPLAR BLUFF   SUNNY     85  60  42 SE9       30.03F
CAPE GIRARDEAU SUNNY     85  58  39 S5        30.03F


...NORTHWEST ALABAMA...

CITY           SKY/WX    TMP DP  RH WIND       PRES   REMARKS
MUSCLE SHOALS  MOSUNNY   91  59  33 N7        30.01F HX  90


...MIDDLE TENNESSEE...

CITY           SKY/WX    TMP DP  RH WIND       PRES   REMARKS
NASHVILLE      MOSUNNY   88  56  33 NW9       30.03S
CLARKSVILLE    MOSUNNY   84  58  40 NW8       30.04S
COLUMBIA       MOSUNNY   88  61  40 N6        30.02F


...WESTERN KENTUCKY...

CITY           SKY/WX    TMP DP  RH WIND       PRES   REMARKS
PADUCAH        SUNNY     89  59  36 VRB5      30.03F
FORT CAMPBELL  MOSUNNY   83  62  48 N6        30.04S


...CENTRAL ARKANSAS...

CITY           SKY/WX    TMP DP  RH WIND       PRES   REMARKS
LITTLE ROCK    CLOUDY    85  67  54 VRB5      30.02F


SKY/WX REPORTED AS FAIR MEANS FEW OR NO CLOUDS BELOW
12 THOUSAND FEET.





USA.gov is the U.S. government's official web portal to all federal, state and local government web resources and services.